Regional Weather Roundup
Issued by NWS

Home | Current Version | Previous Version | Text Only | Print | Product List | Glossary Off
Versions: 1 2 3 4 5 6 7 8 9 10 11 12 13 14 15 16 17 18 19 20 21 22 23 24 25 26 27 28 29 30 31 32 33 34 35 36 37 38 39 40 41 42 43 44 45 46 47 48 49 50

000
ASUS43 KDTX 301910
RWRMI
MICHIGAN HOURLY REGIONAL WEATHER ROUNDUP
NATIONAL WEATHER SERVICE DETROIT/PONTIAC MI
300 PM EDT FRI SEP 30 2016

NOTE: "FAIR" INDICATES FEW OR NO CLOUDS BELOW 12,000 FEET WITH NO
SIGNIFICANT WEATHER AND/OR OBSTRUCTION TO VISIBILITY.

MIZ047>049-052>055-059>063-066>070-074>076-081>083-302000-
SOUTHEAST LOWER MICHIGAN

CITY           SKY/WX    TMP DP  RH WIND       PRES   REMARKS
ADRIAN         CLOUDY    62  61  96 NE15G21   30.09F
ALMA           CLOUDY    61  60  99 N8G18     30.19F FOG
ANN ARBOR      CLOUDY    60  60 100 NE9       30.12F FOG
BAD AXE        CLOUDY    64  58  80 E9G17     30.20F
CARO           HVY RAIN  59  58  97 NE5       30.18F
DETROIT CITY   LGT RAIN  60  60 100 E13       30.14F FOG
DETROIT        CLOUDY    61  60  97 NE9       30.12F
FLINT          LGT RAIN  59  57  93 NE12      30.17F FOG
GROSSE ILE     CLOUDY    64  58  83 E9G16     30.10F
HILLSDALE      CLOUDY    59  57  94 NE14      30.09F FOG
HOWELL         LGT RAIN  59  58  96 NE8       30.15S

CITY           SKY/WX    TMP DP  RH WIND       PRES   REMARKS
JACKSON        CLOUDY    60  60 100 NE10      30.11F
LAMBERTVILLE   LGT RAIN  64  60  88 E6        30.09F
LANSING        CLOUDY    60  57  89 NE9       30.16F
LAPEER         LGT RAIN  59  58  96 NE6       30.17F
MASON          CLOUDY    59  57  94 NE9       30.14F FOG
MONROE         CLOUDY    63  60  90 NE8       30.09F
MT. CLEMENS    LGT RAIN  61  61 100 NE12      30.12F FOG
PONTIAC        LGT RAIN  59  57  93 NE9       30.13F FOG
PORT HURON     LGT RAIN  59  59 100 NE7       30.16F
TRI CITIES     LGT RAIN  60  59  96 E9        30.20F
MIDLAND        LGT RAIN  60  59  97 NE13G18   30.20F
TROY           LGT RAIN  60  58  92 NE10      30.15F
SAGINAW HB     LGT RAIN  59  57  94 NE7       30.18F
$$
MIZ043>046-050>051-056>058-064>065-071>073-077>080-302000-
SOUTHWEST LOWER MICHIGAN

CITY           SKY/WX    TMP DP  RH WIND       PRES   REMARKS
BATTLE CREEK   CLOUDY    60  59  96 NE17      30.11F
BENTON HARBOR  CLOUDY    66  58  75 E13G20    30.08F
BIG RAPIDS     CLOUDY    60  59  95 NE7       30.19F
COLDWATER      DRIZZLE   61  60  98 NE13      30.09F
FREMONT        CLOUDY    60  58  94 E12       30.18F
HOLLAND        CLOUDY    63  57  81 E8        30.13F
GRAND RAPIDS   CLOUDY    61  56  83 NE16G24   30.14F
IONIA          CLOUDY    58  57  96 NE9G17    30.15F FOG
KALAMAZOO      CLOUDY    61  57  87 NE9       30.12F FOG
LUDINGTON      CLOUDY    63  57  83 NE9       30.20F
MARSHALL       CLOUDY    61  60  97 NE5G20    30.11F
MOUNT PLEASANT RAIN      60  59  96 NE9       30.20F
MUSKEGON       CLOUDY    63  58  83 NE13      30.16F
SOUTH HAVEN    CLOUDY    64  60  87 E13G20    30.10F
$$
MIZ016>042-302000-
NORTHERN LOWER MICHIGAN

CITY           SKY/WX    TMP DP  RH WIND       PRES   REMARKS
ALPENA         CLOUDY    65  55  70 E12       30.29F
BEAVER ISLAND  SUNNY     64  55  70 NE15G24   30.28F
BELLAIRE       PTSUNNY   69  56  63 E12G18    30.25S
CADILLAC       CLOUDY    59  56  89 NE5       30.21F
CHARLEVOIX     PTSUNNY   67  56  67 NE13G20   30.27F
FRANKFORT      CLOUDY    65  56  72 E6        30.23F
GAYLORD        MOSUNNY   64  53  67 E12G23    30.27F
GRAYLING       CLOUDY    65  57  74 E15G23    30.26S
HARBOR SPRINGS MOSUNNY   67  55  64 NE17G24   30.27F
HOUGHTON LAKE  LGT RAIN  59  57  93 E10       30.24F FOG
MANISTEE       CLOUDY    64  57  78 E7        30.21F
OSCODA         CLOUDY    63  56  78 NE16      30.25F
PELLSTON       SUNNY     67  52  58 E16G25    30.29F
ROGERS CITY    CLOUDY    64  55  73 E10       30.32F
TRAVERSE CITY  CLOUDY    67  57  70 N7        30.21F
$$
MIZ007>008-015-302000-
EASTERN UPPER MICHIGAN

CITY           SKY/WX    TMP DP  RH WIND       PRES   REMARKS
KINROSS        SUNNY     68  50  52 E14G21    30.32F
MACKINAC ISLAN SUNNY     65  52  63 E12G23    30.30F
NEWBERRY       MOSUNNY   67  54  62 NE10      30.31F
S. S. MARIE    SUNNY     71  49  45 E9G17     30.32F
MUNISING         N/A     64  57  78 NE18      30.31F
$$
MIZ004>006-011>014-085-302000-
CENTRAL UPPER MICHIGAN

CITY           SKY/WX    TMP DP  RH WIND       PRES   REMARKS
MANISTIQUE     MOSUNNY   68  54  60 SE10      30.29F
ESCANABA       PTSUNNY   70  52  52 NE6       30.28F
MENOMINEE      CLOUDY    63  55  75 E18G24    30.28F
SAWYER-GWINN   CLOUDY    61  52  72 N15       30.34F
$$
MIZ001>003-009>011-084-302000-
WESTERN UPPER MICHIGAN

CITY           SKY/WX    TMP DP  RH WIND       PRES   REMARKS
IRON MOUNTAIN  PTSUNNY   68  49  50 NE10      30.30F
HOUGHTON       SUNNY     66  52  60 E12       30.37F
COPPER HARBOR    N/A     62  57  83 VRB5      30.38F
IRONWOOD       SUNNY     62  55  77 N9        30.35F
$$

ABBREVIATIONS USED IN REMARKS
   TC - TEMPERATURE IN CELSIUS
  WCI - WIND CHILL INDEX
   HX - HEAT INDEX
  VSB - VISIBILITY





USA.gov is the U.S. government's official web portal to all federal, state and local government web resources and services.